This is the latest recevied weather packets stored in our database for station/object KB9MLJ. If no packets are shown the sender has not sent any weather packets the latest 10 day(s).
| Time | Temp. | Humidity | Pressure | Rain* | Wind** | Luminosity | Snow |
|---|---|---|---|---|---|---|---|
| 1778007489 | 12.22° C | 55% | 1009.5 hPa | 0 mm | - | 186 W/m² | - |
| 1778007186 | 12.78° C | 55% | 1009.5 hPa | 0 mm | - | 205 W/m² | - |
| 1778006882 | 12.78° C | 56% | 1009.5 hPa | 0 mm | - | 235 W/m² | - |
| 1778006579 | 13.33° C | 55% | 1009.5 hPa | 0 mm | - | 234 W/m² | - |
| 1778006276 | 13.33° C | 54% | 1009.5 hPa | 0 mm | - | 248 W/m² | - |
| 1778005973 | 12.78° C | 54% | 1009.5 hPa | 0 mm | - | 262 W/m² | - |
| 1778005670 | 13.33° C | 55% | 1009.5 hPa | 0 mm | - | 280 W/m² | - |
| 1778005367 | 13.89° C | 56% | 1009.5 hPa | 0 mm | - | 285 W/m² | - |
| 1778005063 | 13.89° C | 56% | 1009.5 hPa | 0 mm | - | 297 W/m² | - |
| 1778004761 | 13.33° C | 61% | 1009.5 hPa | 0 mm | - | 327 W/m² | - |
| 1778004457 | 13.33° C | 60% | 1009.2 hPa | 0 mm | - | 374 W/m² | - |
| 1778004154 | 13.89° C | 63% | 1009.5 hPa | 0 mm | - | 397 W/m² | - |
| 1778003850 | 13.33° C | 61% | 1009.5 hPa | 0 mm | - | 528 W/m² | - |
| 1778003547 | 13.33° C | 63% | 1009.2 hPa | 0 mm | - | 419 W/m² | - |
| 1778003243 | 13.33° C | 64% | 1009.5 hPa | 0 mm | - | 402 W/m² | - |
| 1778002940 | 12.78° C | 63% | 1009.5 hPa | 0 mm | - | 378 W/m² | - |
| 1778002636 | 12.78° C | 66% | 1009.5 hPa | 0 mm | - | 436 W/m² | - |
| 1778002333 | 12.78° C | 65% | 1009.5 hPa | 0 mm | - | 482 W/m² | - |
| 1778002030 | 12.78° C | 64% | 1009.2 hPa | 0 mm | - | 376 W/m² | - |
| 1778001727 | 12.78° C | 65% | 1009.2 hPa | 0 mm | - | 478 W/m² | - |
| 1778001427 | 12.78° C | 66% | 1009.5 hPa | 0 mm | - | 505 W/m² | - |
| 1778001124 | 12.78° C | 67% | 1009.2 hPa | 0 mm | - | 488 W/m² | - |
| 1778000821 | 12.78° C | 67% | 1009.2 hPa | 0 mm | - | 463 W/m² | - |
| 1778000518 | 12.78° C | 66% | 1009.2 hPa | 0 mm | - | 396 W/m² | - |
| 1778000218 | 12.78° C | 69% | 1009.2 hPa | 0 mm | - | 421 W/m² | - |
* Rain latest hour (hover to see other rain measurements)
** Current wind speed in m/s (hover to see current wind gust speed)